Weather History for Caribou, ME

Change the Weather History Date:

Monday, April 7, 2014

  Actual Average Record
Temperature  
Mean Temperature 41 °F 34 °F  
Max Temperature 51 °F 43 °F 60 °F (1993)
Min Temperature 30 °F 26 °F 8 °F (1943)
Degree Days  
Heating Degree Days 24 31  
Month to date heating degree days 220 226  
Since 1 July heating degree days 8414 8201  
Cooling Degree Days 0 0  
Month to date cooling degree days 0 0  
Year to date cooling degree days 0 0  
Moisture  
Dew Point 24 °F    
Average Humidity 52    
Maximum Humidity 72    
Minimum Humidity 31    
Precipitation  
Precipitation 0.00 in 0.09 in 1.37 in (1982)
Month to date precipitation 0.56 0.59  
Year to date precipitation 10.22 8.02  
Snow  
Snow 0.00 in 0.30 in 21.10 in (1982)
Month to date snowfall 3.4 2.6  
Since 1 July snowfall 144.9 103.4  
Snow Depth 28.00 in    
Sea Level Pressure  
Sea Level Pressure 30.10 in    
Wind  
Wind Speed 7 mph (SSW)    
Max Wind Speed 13 mph    
Max Gust Speed 16 mph    
Visibility 10 miles    
Events      
T = Trace of Precipitation, MM = Missing Value Source: NWS Daily Summary

Daily Weather History Graph

Daily Weather History Graph

Search for Another Location

Airport:

Trip Planner

Search our weather history database for the weather conditions in past years. The results will help you decide how hot, cold, wet, or windy it might be!

Date:

Astronomy

Apr. 07, 2014 Rise Set
Actual Time 5:59 AM EDT 7:09 PM EDT
Civil Twilight 5:28 AM EDT 7:40 PM EDT
Nautical Twilight 4:51 AM EDT 8:18 PM EDT
Astronomical Twilight 4:11 AM EDT 8:58 PM EDT
Moon 11:42 AM EDT (4/7) 1:54 AM EDT (4/7)
Length of Visible Light 14h 12m
Length of Day
13h 09m
First Quarter, 53% of the Moon is Illuminated
Apr 7
First Quarter
Apr 15
Full
Apr 22
Last Quarter
Apr 29
New
May 6
First Quarter

Hourly Weather History & Observations

Time (EDT) Temp. Windchill Dew Point Humidity Pressure Visibility Wind Dir Wind Speed Gust Speed Precip Events Conditions
12:54 AM 33.1 °F 24.4 °F 21.9 °F 64% 30.04 in 10.0 mi WSW 11.5 mph - N/A   Clear
1:54 AM 34.0 °F 27.2 °F 23.0 °F 64% 30.05 in 10.0 mi West 8.1 mph - N/A   Overcast
2:54 AM 32.0 °F 27.5 °F 21.9 °F 66% 30.06 in 10.0 mi WSW 4.6 mph - N/A   Clear
3:54 AM 30.9 °F 26.2 °F 21.9 °F 69% 30.07 in 10.0 mi SSW 4.6 mph - N/A   Clear
4:54 AM 33.1 °F 27.7 °F 23.0 °F 66% 30.09 in 10.0 mi West 5.8 mph - N/A   Clear
5:54 AM 30.9 °F 25.2 °F 23.0 °F 72% 30.12 in 10.0 mi West 5.8 mph - N/A   Clear
6:54 AM 32.0 °F 26.4 °F 24.1 °F 73% 30.13 in 10.0 mi WSW 5.8 mph - N/A   Clear
7:54 AM 34.0 °F 28.8 °F 25.0 °F 70% 30.15 in 10.0 mi WSW 5.8 mph - N/A   Clear
8:54 AM 37.9 °F 32.1 °F 26.1 °F 62% 30.17 in 10.0 mi WSW 8.1 mph - N/A   Clear
9:54 AM 41.0 °F 38.0 °F 26.1 °F 55% 30.17 in 10.0 mi SSW 4.6 mph - N/A   Clear
10:54 AM 44.1 °F 39.0 °F 24.1 °F 45% 30.19 in 10.0 mi SSW 9.2 mph - N/A   Scattered Clouds
11:54 AM 45.0 °F 40.1 °F 21.9 °F 40% 30.18 in 10.0 mi South 9.2 mph - N/A   Overcast
12:54 PM 48.0 °F - 19.9 °F 33% 30.16 in 10.0 mi SSW 6.9 mph - N/A   Clear
1:54 PM 46.9 °F - 21.9 °F 37% 30.13 in 10.0 mi ESE 8.1 mph - N/A   Clear
2:54 PM 50.0 °F - 23.0 °F 35% 30.11 in 10.0 mi SE 8.1 mph - N/A   Clear
4:54 PM 50.0 °F - 24.1 °F 36% 30.08 in 10.0 mi ESE 8.1 mph - N/A   Clear
5:54 PM 50.0 °F - 25.0 °F 38% 30.06 in 10.0 mi ESE 6.9 mph - N/A   Clear
6:54 PM 48.9 °F - 27.0 °F 43% 30.07 in 10.0 mi SE 5.8 mph - N/A   Clear
7:54 PM 48.0 °F - 27.0 °F 44% 30.07 in 10.0 mi South 4.6 mph - N/A   Clear
8:54 PM 46.9 °F - 27.0 °F 46% 30.06 in 10.0 mi South 6.9 mph - N/A   Clear
9:54 PM 46.0 °F 43.9 °F 27.0 °F 47% 30.06 in 10.0 mi South 4.6 mph - N/A   Clear
10:54 PM 43.0 °F 39.5 °F 27.0 °F 53% 30.04 in 10.0 mi South 5.8 mph - N/A   Clear
11:54 PM 42.1 °F 38.4 °F 26.1 °F 53% 30.03 in 10.0 mi SE 5.8 mph - N/A   Clear